When you browse on this site, cookies collect data to enhance your experience and personalize the content and advertising you see.
Visit our Privacy Policy to learn more. By continuing to use the site, you agree to this use of cookies and data.
  • In Hungary
  • List of Countries
  • For 7 days
  • Water Temperature
  • Weather Map
  • News
  • Weather Widgets
  • user-avatar
    Login

    Hourly Weather Avintes

    Today, 22 November, Friday

    Time Temperature Precipitation Wind Pressure Humidity
    00:00 +10°C° 1.9 mm 7 mps 746 mmHg 91%
    01:00 +10°C° 1.9 mm 8 mps 745 mmHg 91%
    02:00 +10°C° 1.9 mm 8 mps 744 mmHg 91%
    03:00 +11°C° 2.9 mm 7 mps 743 mmHg 93%
    04:00 +11°C° 2.9 mm 6 mps 742 mmHg 94%
    05:00 +11°C° 2.9 mm 6 mps 741 mmHg 96%
    06:00 +13°C° 2.2 mm 6 mps 741 mmHg 95%
    07:00 +14°C° 2.2 mm 7 mps 740 mmHg 94%
    08:00 +15°C° 2.2 mm 8 mps 740 mmHg 93%
    09:00 +15°C° 0.6 mm 8 mps 740 mmHg 89%
    10:00 +14°C° 0.6 mm 7 mps 740 mmHg 85%
    11:00 +14°C° 0.6 mm 7 mps 740 mmHg 82%
    12:00 +13°C° 0.6 mm 8 mps 740 mmHg 80%
    13:00 +13°C° 0.6 mm 9 mps 740 mmHg 79%
    14:00 +13°C° 0.6 mm 10 mps 739 mmHg 78%
    15:00 +12°C° 0.9 mm 10 mps 740 mmHg 78%
    16:00 +12°C° 0.9 mm 10 mps 740 mmHg 77%
    17:00 +12°C° 0.9 mm 11 mps 740 mmHg 77%
    18:00 +12°C° 0.8 mm 10 mps 741 mmHg 77%
    19:00 +11°C° 0.8 mm 10 mps 742 mmHg 78%
    20:00 +11°C° 0.8 mm 10 mps 743 mmHg 78%
    21:00 +11°C° 0.3 mm 9 mps 744 mmHg 78%
    22:00 +10°C° 0.3 mm 8 mps 745 mmHg 77%
    23:00 +10°C° 0.3 mm 8 mps 746 mmHg 77%

    Tomorrow, 23 November, Saturday

    Time Temperature Precipitation Wind Pressure Humidity
    00:00 +10°C° 0.4 mm 7 mps 746 mmHg 77%
    01:00 +10°C° 0.4 mm 7 mps 747 mmHg 78%
    02:00 +10°C° 0.4 mm 6 mps 748 mmHg 78%
    03:00 +10°C° 0.3 mm 6 mps 748 mmHg 80%
    04:00 +9°C° 0.3 mm 6 mps 749 mmHg 82%
    05:00 +9°C° 0.3 mm 6 mps 750 mmHg 83%
    06:00 +9°C° 0.2 mm 5 mps 751 mmHg 82%
    07:00 +10°C° 0.2 mm 5 mps 751 mmHg 82%
    08:00 +10°C° 0.2 mm 5 mps 752 mmHg 81%
    09:00 +12°C° 0.1 mm 5 mps 752 mmHg 77%
    10:00 +13°C° 0.1 mm 6 mps 753 mmHg 73%
    11:00 +14°C° 0.1 mm 6 mps 753 mmHg 69%
    12:00 +13°C° 0.1 mm 6 mps 754 mmHg 70%
    13:00 +13°C° 0.1 mm 6 mps 754 mmHg 71%
    14:00 +13°C° 0.1 mm 6 mps 754 mmHg 72%
    15:00 +12°C° 0.1 mm 5 mps 755 mmHg 75%
    16:00 +12°C° 0.1 mm 4 mps 755 mmHg 79%
    17:00 +11°C° 0.1 mm 4 mps 756 mmHg 83%
    18:00 +11°C° 0 mm 3 mps 756 mmHg 83%
    19:00 +10°C° 0 mm 3 mps 757 mmHg 83%
    20:00 +10°C° 0 mm 2 mps 757 mmHg 83%
    21:00 +10°C° 0 mm 2 mps 758 mmHg 82%
    22:00 +12°C° 0 mm 1 mps 758 mmHg 80%
    23:00 +12°C° 0 mm 1 mps 758 mmHg 79%

    Day after tomorrow, 24 November, Sunday

    Time Temperature Precipitation Wind Pressure Humidity
    00:00 +12°C° 0 mm 1 mps 758 mmHg 80%
    01:00 +12°C° 0 mm 2 mps 758 mmHg 81%
    02:00 +10°C° 0 mm 3 mps 758 mmHg 82%
    03:00 +10°C° 0 mm 3 mps 758 mmHg 84%
    04:00 +10°C° 0 mm 3 mps 758 mmHg 85%
    05:00 +10°C° 0 mm 3 mps 758 mmHg 86%
    06:00 +10°C° 0 mm 3 mps 758 mmHg 86%
    07:00 +11°C° 0 mm 3 mps 759 mmHg 85%
    08:00 +11°C° 0 mm 3 mps 759 mmHg 84%
    09:00 +12°C° 0 mm 4 mps 759 mmHg 83%
    10:00 +13°C° 0 mm 5 mps 759 mmHg 82%
    11:00 +13°C° 0 mm 5 mps 758 mmHg 81%
    12:00 +13°C° 0.1 mm 5 mps 758 mmHg 83%
    13:00 +13°C° 0.1 mm 6 mps 758 mmHg 84%
    14:00 +13°C° 0.1 mm 6 mps 757 mmHg 86%
    15:00 +13°C° 0.1 mm 6 mps 757 mmHg 88%
    16:00 +13°C° 0.1 mm 6 mps 757 mmHg 90%
    17:00 +13°C° 0.1 mm 6 mps 757 mmHg 91%
    18:00 +13°C° 0.2 mm 6 mps 757 mmHg 92%
    19:00 +14°C° 0.2 mm 6 mps 757 mmHg 94%
    20:00 +14°C° 0.2 mm 6 mps 757 mmHg 95%
    21:00 +14°C° 0.8 mm 6 mps 757 mmHg 96%
    22:00 +15°C° 0.8 mm 6 mps 757 mmHg 97%
    23:00 +15°C° 0.8 mm 6 mps 757 mmHg 98%

    25 November, Monday

    Time Temperature Precipitation Wind Pressure Humidity
    00:00 +15°C° 0.4 mm 5 mps 757 mmHg 98%
    01:00 +15°C° 0.4 mm 4 mps 757 mmHg 98%
    02:00 +16°C° 0.4 mm 3 mps 757 mmHg 98%
    03:00 +16°C° 0.2 mm 3 mps 757 mmHg 96%
    04:00 +16°C° 0.2 mm 3 mps 757 mmHg 94%
    05:00 +16°C° 0.2 mm 3 mps 757 mmHg 93%
    06:00 +16°C° 0.2 mm 3 mps 757 mmHg 90%
    07:00 +16°C° 0.2 mm 3 mps 758 mmHg 88%
    08:00 +16°C° 0.2 mm 3 mps 758 mmHg 86%
    09:00 +17°C° 0.1 mm 3 mps 759 mmHg 82%
    10:00 +17°C° 0.1 mm 3 mps 759 mmHg 77%
    11:00 +18°C° 0.1 mm 3 mps 759 mmHg 73%
    12:00 +17°C° 0.1 mm 3 mps 759 mmHg 73%
    13:00 +17°C° 0.1 mm 2 mps 759 mmHg 74%
    14:00 +17°C° 0.1 mm 2 mps 759 mmHg 74%
    15:00 +16°C° 0 mm 2 mps 759 mmHg 77%
    16:00 +16°C° 0 mm 2 mps 759 mmHg 80%
    17:00 +15°C° 0 mm 1 mps 759 mmHg 83%
    18:00 +15°C° 0 mm 2 mps 759 mmHg 83%
    19:00 +15°C° 0 mm 2 mps 760 mmHg 83%
    20:00 +15°C° 0 mm 2 mps 760 mmHg 83%
    21:00 +15°C° 0 mm 2 mps 759 mmHg 83%
    22:00 +15°C° 0 mm 2 mps 759 mmHg 83%
    23:00 +14°C° 0 mm 3 mps 759 mmHg 82%

    26 November, Tuesday

    Time Temperature Precipitation Wind Pressure Humidity
    00:00 +14°C° 0 mm 3 mps 759 mmHg 83%
    01:00 +13°C° 0 mm 4 mps 758 mmHg 83%
    02:00 +13°C° 0 mm 4 mps 758 mmHg 84%
    03:00 +13°C° 0.4 mm 4 mps 757 mmHg 85%
    04:00 +13°C° 0.4 mm 5 mps 757 mmHg 87%
    05:00 +13°C° 0.4 mm 5 mps 756 mmHg 88%
    06:00 +13°C° 1.2 mm 6 mps 756 mmHg 90%
    07:00 +14°C° 1.2 mm 7 mps 756 mmHg 91%
    08:00 +14°C° 1.2 mm 7 mps 755 mmHg 92%
    09:00 +14°C° 0.3 mm 7 mps 756 mmHg 93%
    10:00 +15°C° 0.3 mm 6 mps 756 mmHg 94%
    11:00 +15°C° 0.3 mm 6 mps 756 mmHg 94%
    12:00 +15°C° 0.3 mm 5 mps 755 mmHg 93%
    13:00 +16°C° 0.3 mm 5 mps 755 mmHg 92%
    14:00 +17°C° 0.3 mm 4 mps 755 mmHg 90%
    15:00 +15°C° 0.2 mm 4 mps 755 mmHg 92%
    16:00 +16°C° 0.2 mm 3 mps 756 mmHg 93%
    17:00 +14°C° 0.2 mm 3 mps 756 mmHg 95%
    18:00 +15°C° 0.1 mm 2 mps 756 mmHg 94%
    19:00 +15°C° 0.1 mm 2 mps 757 mmHg 93%
    20:00 +14°C° 0.1 mm 2 mps 757 mmHg 93%
    21:00 +14°C° 0.1 mm 2 mps 757 mmHg 91%
    22:00 +14°C° 0.1 mm 2 mps 757 mmHg 89%
    23:00 +14°C° 0.1 mm 2 mps 757 mmHg 87%

    27 November, Wednesday

    Time Temperature Precipitation Wind Pressure Humidity
    00:00 +14°C° 0.1 mm 2 mps 757 mmHg 86%
    01:00 +14°C° 0.1 mm 2 mps 757 mmHg 85%
    02:00 +14°C° 0.1 mm 2 mps 757 mmHg 84%
    03:00 +14°C° 0 mm 1 mps 757 mmHg 84%
    04:00 +13°C° 0 mm 1 mps 757 mmHg 84%
    05:00 +13°C° 0 mm 1 mps 757 mmHg 85%
    06:00 +14°C° 0 mm 1 mps 757 mmHg 84%
    07:00 +14°C° 0 mm 1 mps 757 mmHg 83%
    08:00 +14°C° 0 mm 1 mps 757 mmHg 82%
    09:00 +15°C° 0.1 mm 2 mps 758 mmHg 80%
    10:00 +15°C° 0.1 mm 2 mps 758 mmHg 79%
    11:00 +15°C° 0.1 mm 2 mps 758 mmHg 78%
    12:00 +16°C° 0.1 mm 2 mps 757 mmHg 75%
    13:00 +16°C° 0.1 mm 2 mps 757 mmHg 73%
    14:00 +16°C° 0.1 mm 2 mps 757 mmHg 71%
    15:00 +15°C° 0 mm 2 mps 757 mmHg 75%
    16:00 +14°C° 0 mm 2 mps 757 mmHg 79%
    17:00 +13°C° 0 mm 2 mps 757 mmHg 83%
    18:00 +13°C° 0 mm 2 mps 758 mmHg 84%
    19:00 +13°C° 0 mm 2 mps 758 mmHg 85%
    20:00 +13°C° 0 mm 2 mps 758 mmHg 86%
    21:00 +12°C° 0 mm 3 mps 758 mmHg 86%
    22:00 +11°C° 0 mm 3 mps 758 mmHg 86%
    23:00 +11°C° 0 mm 3 mps 758 mmHg 86%
    Show more